Hovedside
METAR-TAF:

METAR-TAF

Lufthavner :

La Grande/Union County Airport

La Grande, Oregon, USA

breddegrad: 45-17N, lengdegrad: 118-00W, høyde over havet: 827 m

Gjeldene værobservasjon

Denne rapporten ble laget for 37 minutter siden, klokken 01:56 UTC
Flau vind
Temperatur 21°C
Luftfuktighet 53%
Trykk 1017 hPa
Sikt: 16.1 km
Brutte skyer i en høyde av 5500 ft

METAR: KLGD 270156Z AUTO 00000KT 10SM BKN055 21/11 A3004 RMK AO2 SLP162 T02110106

Tid: 19:33 (02:33 UTC)


TAF: fraværende

Værobservasjoner og værvarsel for over 4000 flyplasser (METAR- og TAF-rapporter).

Tilgjengelige stasjoner er representert av de røde og gule prikkene på kartet.

Hold musepekeren over prikken for å se navnet på stasjonen.

Klikk så for å se værobservasjoner og -varsler.

For å forandre kartet kan du klikke på den grønne knappen med svart kryss for å zoome inn, på den grønne knappen med strek for å zoome ut, eller på de grønne pilene for å se tilstøtende kart.


METAR-TAF: